Ludington, MI

6:50 PM EDT on August 23, 2019 (GMT -0400)
Mason County

Weather History for KLDM - July, 2019

Change the Weather History Date:

Monday, July 22, 2019

  Actual Average Record
Temperature  
Mean Temperature 65 °F -  
Max Temperature 72 °F 80 °F 92 °F (1987)
Min Temperature 56 °F 58 °F 44 °F (1981)
Growing Degree Days 15 (Base 50)    
Moisture  
Dew Point 53 °F    
Average Humidity 65    
Maximum Humidity 96    
Minimum Humidity 37    
Precipitation  
Precipitation 0.00 in - - ()
Sea Level Pressure  
Sea Level Pressure 30.05 in    
Wind  
Wind Speed 6 mph (North)    
Max Wind Speed 16 mph    
Max Gust Speed 23 mph    
Visibility 10 miles    
Events      
Averages and records for this station are not official NWS values.
T = Trace of Precipitation, MM = Missing Value Source: NWS Daily Summary

Daily Weather History Graph

Daily Weather History Graph

Search for Another Location

Airport or City:

Astronomy

Jul. 22, 2019 Rise Set
Actual Time 6:23 AM EDT 9:20 PM EDT
Civil Twilight 5:49 AM EDT 9:54 PM EDT
Nautical Twilight 5:05 AM EDT 10:37 PM EDT
Astronomical Twilight 4:13 AM EDT 11:28 PM EDT
Moon 12:07 AM EDT (7/22) 11:49 AM EDT (7/22)
Length of Visible Light 16h 05m
Length of Day
14h 57m
Waning Gibbous, 72% of the Moon is Illuminated
Jul 22
Waning Gibbous
Jul 24
Last Quarter
Jul 31
New
Aug 7
First Quarter
Aug 15
Full

Hourly Weather History & Observations

Time (EDT) Temp. Dew Point Humidity Pressure Visibility Wind Dir Wind Speed Gust Speed Precip Events Conditions
12:15 AM 64.6 °F 58.1 °F 79% 30.02 in 10.0 mi NE 4.6 mph - N/A   Clear
12:38 AM 64.4 °F 57.6 °F 78% 30.02 in 10.0 mi North 4.6 mph - N/A   Clear
12:56 AM 63.9 °F 57.4 °F 79% 30.02 in 10.0 mi Calm Calm - N/A   Clear
1:15 AM 63.9 °F 57.4 °F 79% 30.02 in 10.0 mi NNE 4.6 mph - N/A   Clear
1:16 AM 63.7 °F 57.4 °F 80% 30.02 in 10.0 mi North 5.8 mph - N/A   Clear
1:35 AM 63.1 °F 57.2 °F 81% 30.02 in 10.0 mi NNE 3.5 mph - N/A   Clear
1:59 AM 62.6 °F 56.7 °F 81% 30.02 in 10.0 mi NNE 3.5 mph - N/A   Clear
2:17 AM 62.1 °F 56.3 °F 81% 30.02 in 10.0 mi North 3.5 mph - N/A   Clear
2:35 AM 61.9 °F 55.4 °F 79% 30.02 in 10.0 mi North 3.5 mph - N/A   Clear
2:55 AM 62.1 °F 53.6 °F 74% 30.02 in 10.0 mi Calm Calm - N/A   Clear
2:56 AM 61.9 °F 53.6 °F 74% 30.02 in 10.0 mi NNE 3.5 mph - N/A   Clear
3:15 AM 61.9 °F 53.4 °F 74% 30.02 in 10.0 mi NNE 4.6 mph - N/A   Clear
3:20 AM 61.9 °F 52.9 °F 72% 30.02 in 10.0 mi NNE 4.6 mph - N/A   Clear
3:38 AM 61.7 °F 51.8 °F 70% 30.03 in 10.0 mi North 4.6 mph - N/A   Clear
3:56 AM 61.2 °F 52.0 °F 72% 30.03 in 10.0 mi North 4.6 mph - N/A   Clear
4:15 AM 61.0 °F 52.2 °F 73% 30.03 in 10.0 mi North 5.8 mph - N/A   Clear
4:16 AM 61.0 °F 52.3 °F 73% 30.03 in 10.0 mi North 6.9 mph - N/A   Clear
4:35 AM 61.7 °F 53.4 °F 74% 30.03 in 10.0 mi North 5.8 mph - N/A   Clear
4:59 AM 61.9 °F 51.3 °F 68% 30.03 in 10.0 mi North 6.9 mph - N/A   Clear
5:17 AM 61.7 °F 49.1 °F 63% 30.02 in 10.0 mi NNE 4.6 mph - N/A   Clear
5:35 AM 61.2 °F 48.4 °F 63% 30.03 in 10.0 mi NNE 3.5 mph - N/A   Clear
5:36 AM 61.2 °F 48.4 °F 63% 30.03 in 10.0 mi NNE 3.5 mph - N/A   Clear
5:55 AM 60.8 °F 48.6 °F 64% 30.04 in 10.0 mi North 3.5 mph - N/A   Clear
6:15 AM 60.4 °F 48.9 °F 66% 30.03 in 10.0 mi Calm Calm - N/A   Scattered Clouds
6:38 AM 59.7 °F 50.0 °F 70% 30.02 in 10.0 mi Calm Calm - N/A   Scattered Clouds
6:56 AM 59.2 °F 50.5 °F 73% 30.04 in 10.0 mi Calm Calm - N/A   Scattered Clouds
7:15 AM 59.2 °F 51.6 °F 76% 30.04 in 10.0 mi Calm Calm - N/A   Scattered Clouds
7:35 AM 60.3 °F 52.7 °F 76% 30.04 in 10.0 mi Calm Calm - N/A   Clear
7:59 AM 62.4 °F 52.2 °F 69% 30.05 in 10.0 mi North 5.8 mph - N/A   Clear
8:17 AM 63.7 °F 52.9 °F 68% 30.05 in 10.0 mi Calm Calm - N/A   Clear
8:35 AM 64.4 °F 53.2 °F 67% 30.05 in 10.0 mi Calm Calm - N/A   Clear
8:55 AM 65.5 °F 54.0 °F 66% 30.05 in 10.0 mi North 5.8 mph - N/A   Clear
9:15 AM 65.5 °F 54.1 °F 67% 30.06 in 10.0 mi North 6.9 mph 18.4 mph N/A   Clear
9:38 AM 66.2 °F 54.5 °F 66% 30.06 in 10.0 mi North 12.7 mph 18.4 mph N/A   Clear
9:55 AM 66.9 °F 54.9 °F 65% 30.06 in 10.0 mi North 10.4 mph 17.3 mph N/A   Clear
10:15 AM 67.6 °F 55.4 °F 65% 30.06 in 10.0 mi North 8.1 mph - N/A   Clear
10:16 AM 67.8 °F 55.6 °F 65% 30.06 in 10.0 mi North 8.1 mph - N/A   Clear
10:35 AM 68.9 °F 55.9 °F 63% 30.06 in 10.0 mi North 12.7 mph 17.3 mph N/A   Clear
10:59 AM 68.7 °F 55.8 °F 63% 30.06 in 10.0 mi NNW 12.7 mph 17.3 mph N/A   Clear
11:17 AM 69.3 °F 56.1 °F 63% 30.06 in 10.0 mi North 12.7 mph - N/A   Clear
11:35 AM 69.6 °F 56.7 °F 63% 30.06 in 10.0 mi North 10.4 mph 17.3 mph N/A   Clear
11:36 AM 69.6 °F 56.8 °F 64% 30.05 in 10.0 mi North 9.2 mph 16.1 mph N/A   Clear
11:55 AM 70.0 °F 57.6 °F 65% 30.05 in 10.0 mi NNW 12.7 mph 16.1 mph N/A   Clear
11:56 AM 70.2 °F 57.4 °F 64% 30.05 in 10.0 mi NNW 12.7 mph 16.1 mph N/A   Clear
12:15 PM 70.0 °F 56.7 °F 63% 30.06 in 10.0 mi North 11.5 mph 18.4 mph N/A   Clear
12:20 PM 69.8 °F 56.5 °F 63% 30.06 in 10.0 mi North 9.2 mph 18.4 mph N/A   Clear
12:38 PM 70.7 °F 56.5 °F 61% 30.06 in 10.0 mi North 11.5 mph 17.3 mph N/A   Clear
12:56 PM 70.7 °F 55.2 °F 58% 30.06 in 10.0 mi North 11.5 mph 19.6 mph N/A   Clear
1:15 PM 71.2 °F 53.2 °F 53% 30.06 in 10.0 mi North 12.7 mph 17.3 mph N/A   Clear
1:35 PM 70.9 °F 53.1 °F 53% 30.06 in 10.0 mi North 11.5 mph 20.7 mph N/A   Clear
1:36 PM 71.1 °F 53.4 °F 54% 30.06 in 10.0 mi North 11.5 mph 20.7 mph N/A   Clear
1:59 PM 70.9 °F 53.8 °F 55% 30.06 in 10.0 mi North 13.8 mph 18.4 mph N/A   Clear
2:17 PM 71.1 °F 52.0 °F 51% 30.06 in 10.0 mi North 13.8 mph 23.0 mph N/A   Clear
2:35 PM 71.2 °F 51.4 °F 50% 30.06 in 10.0 mi NNW 13.8 mph 20.7 mph N/A   Clear
2:55 PM 71.4 °F 49.1 °F 45% 30.05 in 10.0 mi North 15.0 mph 23.0 mph N/A   Clear
3:15 PM 71.4 °F 48.2 °F 44% 30.06 in 10.0 mi NNW 16.1 mph 23.0 mph N/A   Clear
3:20 PM 71.6 °F 49.1 °F 45% 30.06 in 10.0 mi North 13.8 mph 23.0 mph N/A   Clear
3:38 PM 71.6 °F 50.5 °F 47% 30.06 in 10.0 mi North 11.5 mph - N/A   Clear
3:56 PM 71.8 °F 48.9 °F 44% 30.05 in 10.0 mi North 13.8 mph 23.0 mph N/A   Clear
4:15 PM 72.0 °F 47.7 °F 42% 30.06 in 10.0 mi North 11.5 mph 21.9 mph N/A   Clear
4:35 PM 72.5 °F 48.7 °F 43% 30.06 in 10.0 mi North 11.5 mph 17.3 mph N/A   Clear
4:36 PM 72.5 °F 48.7 °F 43% 30.06 in 10.0 mi North 11.5 mph 17.3 mph N/A   Clear
4:59 PM 71.6 °F 46.2 °F 40% 30.06 in 10.0 mi North 11.5 mph 18.4 mph N/A   Clear
5:17 PM 71.8 °F 45.9 °F 39% 30.06 in 10.0 mi North 11.5 mph 18.4 mph N/A   Clear
5:35 PM 71.8 °F 45.3 °F 39% 30.06 in 10.0 mi North 11.5 mph 18.4 mph N/A   Clear
5:36 PM 71.8 °F 45.0 °F 38% 30.06 in 10.0 mi NNW 11.5 mph 18.4 mph N/A   Clear
5:55 PM 72.0 °F 45.1 °F 38% 30.05 in 10.0 mi North 9.2 mph 16.1 mph N/A   Clear
6:15 PM 71.8 °F 45.5 °F 39% 30.05 in 10.0 mi NNW 8.1 mph - N/A   Clear
6:38 PM 71.6 °F 43.9 °F 37% 30.05 in 10.0 mi NNW 8.1 mph - N/A   Clear
6:56 PM 71.1 °F 46.4 °F 41% 30.05 in 10.0 mi NNW 8.1 mph - N/A   Clear
7:15 PM 70.9 °F 47.5 °F 43% 30.05 in 10.0 mi North 4.6 mph - N/A   Clear
7:16 PM 70.9 °F 47.7 °F 44% 30.05 in 10.0 mi North 6.9 mph - N/A   Clear
7:35 PM 70.7 °F 47.7 °F 44% 30.05 in 10.0 mi North 4.6 mph - N/A   Clear
7:59 PM 70.2 °F 50.9 °F 50% 30.05 in 10.0 mi NW 3.5 mph - N/A   Scattered Clouds
8:17 PM 69.8 °F 50.5 °F 50% 30.06 in 10.0 mi Calm Calm - N/A   Mostly Cloudy
8:35 PM 68.0 °F 54.1 °F 61% 30.06 in 10.0 mi Calm Calm - N/A   Mostly Cloudy
8:55 PM 64.4 °F 56.3 °F 75% 30.05 in 10.0 mi Calm Calm - N/A   Mostly Cloudy
9:15 PM 63.5 °F 56.5 °F 78% 30.05 in 10.0 mi Calm Calm - N/A   Mostly Cloudy
9:20 PM 63.0 °F 56.8 °F 80% 30.05 in 10.0 mi Calm Calm - N/A   Mostly Cloudy
9:38 PM 62.8 °F 56.5 °F 80% 30.05 in 7.0 mi Calm Calm - N/A   Mostly Cloudy
9:56 PM 60.8 °F 57.0 °F 87% 30.05 in 4.0 mi Calm Calm - N/A   Mostly Cloudy
10:15 PM 60.6 °F 57.0 °F 88% 30.05 in 7.0 mi Calm Calm - N/A   Mostly Cloudy
10:16 PM 60.4 °F 57.0 °F 88% 30.05 in 7.0 mi Calm Calm - N/A   Mostly Cloudy
10:35 PM 59.4 °F 57.2 °F 93% 30.05 in 10.0 mi Calm Calm - N/A   Mostly Cloudy
10:36 PM 59.4 °F 57.2 °F 93% 30.05 in 10.0 mi Calm Calm - N/A   Mostly Cloudy
10:58 PM 58.8 °F 56.8 °F 93% 30.06 in 10.0 mi Calm Calm - N/A   Overcast
11:17 PM 58.6 °F 56.8 °F 94% 30.06 in 10.0 mi Calm Calm - N/A   Overcast
11:35 PM 59.0 °F 56.8 °F 93% 30.06 in 10.0 mi Calm Calm - N/A   Scattered Clouds
11:55 PM 56.5 °F 55.4 °F 96% 30.07 in 10.0 mi NNE 8.1 mph - N/A   Clear